TimeCST,TemperatureF,Dew PointF,Humidity,Sea Level PressureIn,VisibilityMPH,Wind Direction,Wind SpeedMPH,Gust SpeedMPH,PrecipitationIn,Events,Conditions,WindDirDegrees,DateUTC
12:53 AM,57.9,57.0,97,29.84,5.0,SW,6.9,-,N/A,,Overcast,230,2012-12-08 06:53:00
1:53 AM,57.9,55.9,93,29.86,5.0,SW,8.1,-,N/A,,Overcast,230,2012-12-08 07:53:00
2:04 AM,57.2,55.4,94,29.86,5.0,SW,5.8,-,N/A,,Overcast,220,2012-12-08 08:04:00
2:18 AM,57.2,55.4,94,29.86,5.0,SW,6.9,-,N/A,,Overcast,230,2012-12-08 08:18:00
2:28 AM,57.2,55.4,94,29.86,6.0,SW,5.8,-,N/A,,Overcast,220,2012-12-08 08:28:00
2:53 AM,57.9,55.9,93,29.85,6.0,SW,5.8,-,N/A,,Overcast,220,2012-12-08 08:53:00
3:53 AM,57.0,55.0,93,29.85,5.0,SW,4.6,-,N/A,,Overcast,220,2012-12-08 09:53:00
4:53 AM,57.0,55.0,93,29.86,5.0,SW,3.5,-,N/A,,Overcast,230,2012-12-08 10:53:00
5:53 AM,55.9,54.0,93,29.87,4.0,Calm,Calm,-,N/A,,Overcast,0,2012-12-08 11:53:00
6:53 AM,55.9,54.0,93,29.90,3.0,WSW,3.5,-,N/A,,Overcast,250,2012-12-08 12:53:00
6:56 AM,55.4,53.6,94,29.90,3.0,WSW,4.6,-,N/A,,Overcast,240,2012-12-08 12:56:00
7:30 AM,55.4,55.4,100,29.91,4.0,WNW,4.6,-,N/A,,Overcast,300,2012-12-08 13:30:00
7:33 AM,55.4,55.4,100,29.91,3.0,WNW,4.6,-,N/A,,Overcast,300,2012-12-08 13:33:00
7:39 AM,55.4,55.4,100,29.91,2.5,West,3.5,-,N/A,,Overcast,280,2012-12-08 13:39:00
7:44 AM,57.2,53.6,88,29.91,3.0,West,5.8,-,N/A,,Overcast,280,2012-12-08 13:44:00
7:53 AM,55.9,54.0,93,29.91,2.5,WNW,8.1,-,N/A,,Overcast,300,2012-12-08 13:53:00
8:05 AM,55.4,53.6,94,29.92,3.0,NW,6.9,-,N/A,,Overcast,310,2012-12-08 14:05:00
8:26 AM,55.4,53.6,94,29.92,2.5,North,9.2,-,N/A,,Overcast,350,2012-12-08 14:26:00
8:33 AM,55.4,51.8,88,29.92,3.0,North,6.9,-,N/A,,Overcast,360,2012-12-08 14:33:00
8:53 AM,55.0,52.0,89,29.93,4.0,North,5.8,-,N/A,,Overcast,10,2012-12-08 14:53:00
9:07 AM,55.4,51.8,88,29.93,4.0,NNE,4.6,-,N/A,,Overcast,30,2012-12-08 15:07:00
9:53 AM,55.9,52.0,87,29.94,5.0,NE,4.6,-,N/A,,Overcast,50,2012-12-08 15:53:00
10:07 AM,55.4,51.8,88,29.95,5.0,Calm,Calm,-,N/A,,Haze,0,2012-12-08 16:07:00
10:53 AM,57.0,52.0,83,29.94,7.0,NE,3.5,-,N/A,,Overcast,40,2012-12-08 16:53:00
11:28 AM,59.0,51.8,77,29.93,8.0,ENE,6.9,-,N/A,,Overcast,60,2012-12-08 17:28:00
11:53 AM,60.1,52.0,75,29.92,8.0,ENE,3.5,-,N/A,,Scattered Clouds,60,2012-12-08 17:53:00
12:07 PM,60.8,51.8,72,29.92,9.0,NE,4.6,-,N/A,,Mostly Cloudy,50,2012-12-08 18:07:00
12:53 PM,60.1,52.0,75,29.90,10.0,NE,6.9,-,N/A,,Overcast,40,2012-12-08 18:53:00
1:53 PM,59.0,52.0,78,29.90,10.0,North,8.1,-,N/A,,Overcast,360,2012-12-08 19:53:00
2:25 PM,55.4,51.8,88,29.91,6.0,NNW,11.5,-,N/A,,Haze,340,2012-12-08 20:25:00
2:49 PM,53.6,50.0,88,29.91,4.0,North,12.7,-,N/A,,Overcast,360,2012-12-08 20:49:00
2:53 PM,54.0,50.0,86,29.91,3.0,North,11.5,-,N/A,,Overcast,360,2012-12-08 20:53:00
3:53 PM,53.1,50.0,89,29.91,5.0,NNE,10.4,-,N/A,,Overcast,20,2012-12-08 21:53:00
4:53 PM,53.1,48.9,86,29.93,7.0,NE,9.2,-,N/A,,Overcast,40,2012-12-08 22:53:00
5:53 PM,52.0,48.0,86,29.94,7.0,NE,11.5,-,N/A,,Overcast,50,2012-12-08 23:53:00
6:53 PM,51.1,48.0,89,29.95,7.0,NE,9.2,-,N/A,,Overcast,50,2012-12-09 00:53:00
7:53 PM,50.0,48.0,93,29.95,4.0,ENE,9.2,-,N/A,,Overcast,60,2012-12-09 01:53:00
8:53 PM,50.0,46.9,89,29.96,5.0,ENE,8.1,-,N/A,,Overcast,70,2012-12-09 02:53:00
9:53 PM,50.0,46.9,89,29.95,5.0,ENE,8.1,-,N/A,,Overcast,70,2012-12-09 03:53:00
10:53 PM,50.0,48.0,93,29.94,5.0,East,9.2,-,N/A,,Overcast,90,2012-12-09 04:53:00
11:53 PM,51.1,48.0,89,29.93,5.0,East,8.1,-,N/A,,Overcast,90,2012-12-09 05:53:00